Wind_Speed
44 43 42 40 39 38 37 37 37 38 39 40 41 42 43 44 46 47 48 48 48 48 48 48 48 47 46 44 43 41 40 38 36 34 33 32 31 30
44 43 41 40 39 38 39 40 40 40 41 42 43 44 45 46 47 47 48 48 48 48 48 47 47 46 44 43 42 40 38 36 34 33 32 31 31 30
43 42 41 40 40 40 41 41 42 42 43 44 45 46 47 48 48 47 47 47 47 47 47 47 46 44 43 42 40 38 36 35 33 32 31 31 30 29
44 43 42 43 43 43 43 44 45 45 46 46 46 47 47 47 46 46 46 46 46 46 46 45 43 41 40 39 38 36 35 33 32 31 30 29 29 28
43 44 44 44 44 45 45 46 47 47 47 47 47 46 46 45 45 45 45 45 45 44 43 42 41 40 39 37 36 34 33 31 30 29 28 27 26 26
45 46 46 46 46 46 46 47 47 47 48 47 46 45 45 45 45 44 43 43 42 42 41 41 39 38 37 35 34 32 31 29 28 28 26 25 25 25
48 48 48 48 47 48 48 47 47 47 47 46 45 45 44 44 43 43 42 41 41 40 39 38 38 36 35 34 32 30 29 28 27 26 25 24 24 24
49 49 50 50 49 48 48 47 46 46 46 45 45 44 44 44 43 42 41 40 40 40 39 37 36 34 33 31 30 28 27 26 25 24 24 23 23 23
50 50 50 49 49 48 47 47 46 46 46 45 45 44 44 43 42 41 40 40 39 38 37 35 34 33 31 30 28 27 26 25 24 23 22 22 23 23
51 50 49 49 49 49 47 47 46 46 45 45 44 44 44 43 42 40 40 39 38 37 36 34 32 31 30 28 27 26 25 24 23 22 22 22 23 23
51 51 51 50 49 49 48 48 47 46 45 45 44 44 43 42 41 40 39 38 37 36 34 32 31 30 29 28 26 25 24 24 23 23 22 22 23 23
52 51 51 50 50 49 48 48 48 46 46 45 44 43 42 41 40 39 38 37 36 35 33 32 30 29 28 27 26 25 24 23 23 22 22 22 22 23
53 52 51 50 50 49 49 48 47 46 45 44 43 42 41 40 39 38 37 36 35 34 32 31 30 28 27 26 25 24 24 23 22 22 22 22 22 23
53 52 52 51 50 49 49 47 46 45 44 43 42 41 40 39 38 37 36 35 34 33 32 30 29 28 27 26 24 23 23 22 22 22 21 22 22 23
52 53 52 52 51 49 49 47 46 45 43 42 41 41 39 38 37 36 35 34 33 32 31 30 28 27 26 25 24 23 23 22 22 22 22 22 23 24
52 52 51 51 51 49 48 47 46 45 44 42 41 40 39 38 36 36 35 34 32 32 30 29 28 27 27 26 25 25 24 24 24 24 24 24 25 25
52 51 50 49 48 48 47 47 45 44 43 41 40 40 39 37 36 35 34 33 32 31 30 29 28 27 27 26 26 25 25 25 25 25 25 26 26 27
51 50 50 49 48 47 46 45 44 43 41 40 39 39 38 37 36 35 34 33 32 31 30 29 28 27 27 27 26 26 26 26 26 26 27 27 28 28
50 49 48 47 46 45 44 43 43 42 40 39 39 38 37 36 35 34 33 33 32 31 30 29 28 28 27 27 27 27 27 27 27 28 28 28 29 30
49 48 47 46 44 43 42 42 42 41 40 39 39 38 37 36 35 34 34 33 32 31 31 30 30 29 28 28 28 28 28 28 28 29 29 30 31 32
48 46 46 44 44 42 41 41 40 40 39 39 38 37 36 35 35 34 34 33 33 32 31 31 31 30 29 29 29 30 30 30 30 30 30 31 32 33
46 46 45 44 43 42 41 41 40 39 38 38 37 36 36 35 35 34 34 33 33 33 32 32 31 31 30 30 30 31 31 31 31 31 31 31 32 33
44 44 44 44 43 41 41 40 39 38 37 37 36 36 35 35 34 34 34 33 33 33 33 32 32 31 31 31 31 32 32 32 32 32 33 33 34 34
Wind_Direction
261 263 264 264 266 267 269 271 274 276 279 282 285 287 289 291 293 294 294 294 295 295 295 296 296 295 295 294 293 290 288 286 284 281 278 274 269 267
263 265 265 267 269 269 270 272 275 278 280 281 283 285 287 290 292 292 293 293 293 294 295 295 295 295 294 293 292 290 288 285 282 279 276 272 268 265
262 262 265 268 269 270 272 274 275 277 279 281 282 284 287 289 290 291 291 292 293 294 294 294 294 294 294 293 292 290 287 284 281 277 274 270 267 263
261 263 267 269 269 269 271 273 274 276 278 280 282 284 286 287 288 289 290 291 292 293 293 294 294 293 293 293 291 289 286 283 280 277 274 270 265 261
264 266 268 269 268 269 271 272 274 275 278 280 281 283 284 285 286 287 289 290 291 292 292 293 292 292 292 293 291 290 287 283 279 276 274 268 263 258
267 267 267 267 268 269 270 272 273 275 277 278 280 281 283 284 285 287 288 290 291 291 291 291 291 291 291 291 290 289 286 282 279 275 271 264 261 256
265 266 266 267 267 269 270 271 272 274 275 276 278 279 281 283 284 286 288 289 289 290 290 290 290 290 290 290 289 287 283 280 277 273 268 263 258 253
265 265 265 266 267 268 269 270 272 273 274 275 277 278 280 282 283 285 286 287 287 288 288 289 289 289 289 288 287 285 281 278 274 269 266 261 257 254
263 263 264 265 265 266 267 269 270 271 272 274 276 277 279 280 282 283 284 284 285 286 286 287 287 287 288 287 285 282 278 275 271 267 264 260 256 252
262 262 262 263 264 265 266 267 269 270 271 273 274 276 277 278 280 281 282 283 283 283 284 284 285 286 286 284 282 279 277 274 270 266 263 259 255 252
260 260 261 262 262 263 264 266 267 268 269 271 272 274 275 277 278 279 280 281 281 281 281 282 282 283 283 282 279 276 274 272 268 265 263 259 255 251
259 260 261 261 262 263 263 264 265 267 268 270 271 272 274 275 276 277 278 278 278 278 278 279 280 280 280 279 276 273 271 270 267 263 261 257 254 251
258 258 259 259 260 261 262 263 264 265 267 268 269 271 272 273 274 275 275 275 275 275 276 276 277 277 277 275 273 270 268 267 264 261 260 257 254 253
256 256 256 257 258 259 259 260 262 263 264 265 267 268 270 270 272 272 272 272 272 273 273 273 274 274 273 271 270 268 266 265 263 260 259 258 256 256
254 254 255 255 255 256 257 258 259 260 262 263 265 266 267 268 269 270 270 270 270 270 271 270 271 270 269 268 267 265 264 263 262 261 260 259 258 257
252 253 253 253 254 254 255 256 257 259 260 261 262 263 264 265 267 268 268 268 268 267 268 267 267 267 267 266 265 264 263 263 262 262 262 261 260 259
250 250 251 252 252 253 254 255 256 257 258 259 260 261 262 263 264 265 265 265 265 265 265 265 265 265 264 264 264 263 263 263 263 263 263 263 263 262
249 249 249 249 250 251 252 253 254 255 256 257 258 259 260 261 262 262 263 262 261 262 262 262 263 263 263 263 264 264 264 264 264 265 264 264 265 264
246 247 247 247 248 249 250 251 252 253 253 255 256 257 258 259 260 260 260 260 259 260 260 261 261 261 261 262 263 264 265 265 265 265 265 266 266 266
245 244 245 244 245 247 248 249 250 251 252 253 254 255 256 257 258 258 257 258 258 258 259 259 260 260 260 261 263 264 265 266 266 267 268 268 268 268
243 243 242 242 243 244 245 246 248 249 251 252 252 253 255 255 256 255 256 256 257 257 258 258 259 260 261 262 263 264 266 267 268 269 270 270 270 270
241 241 240 240 241 242 243 244 246 248 250 251 251 252 253 254 254 255 255 256 256 256 257 258 259 260 260 262 263 265 266 268 269 269 270 271 271 271
239 239 239 238 239 240 241 243 244 246 248 249 249 250 250 252 253 254 255 255 255 256 257 258 259 260 261 263 265 266 267 269 270 271 271 272 272 271
Height
5740 5740 5741 5741 5742 5742 5742 5742 5742 5742 5742 5741 5739 5737 5735 5732 5730 5727 5724 5721 5717 5714 5710 5706 5702 5699 5695 5692 5689 5686 5684 5682 5681 5680 5680 5680 5681 5682
5729 5729 5730 5731 5731 5731 5731 5731 5731 5731 5731 5730 5728 5726 5723 5721 5718 5716 5713 5710 5706 5703 5699 5695 5692 5688 5685 5681 5679 5676 5674 5673 5672 5671 5671 5671 5671 5673
5718 5718 5719 5719 5720 5720 5720 5720 5719 5719 5719 5718 5716 5714 5712 5709 5707 5704 5701 5698 5695 5692 5688 5684 5681 5677 5674 5671 5668 5666 5664 5663 5662 5662 5662 5662 5663 5664
5706 5707 5708 5708 5708 5708 5708 5708 5707 5707 5706 5706 5704 5702 5700 5698 5695 5693 5690 5687 5684 5681 5677 5674 5670 5667 5664 5661 5659 5656 5655 5654 5653 5653 5653 5654 5654 5656
5694 5695 5695 5695 5695 5696 5695 5695 5695 5694 5694 5693 5692 5690 5688 5686 5684 5681 5678 5676 5673 5669 5666 5663 5660 5657 5654 5652 5649 5647 5646 5645 5644 5644 5645 5645 5647 5648
5681 5682 5682 5682 5682 5683 5682 5682 5682 5682 5681 5680 5679 5678 5676 5674 5672 5670 5668 5665 5662 5659 5656 5653 5650 5648 5645 5643 5640 5639 5637 5637 5636 5636 5637 5638 5639 5641
5667 5668 5668 5669 5669 5669 5669 5669 5669 5669 5668 5667 5667 5666 5664 5662 5661 5659 5657 5654 5651 5648 5646 5643 5641 5639 5636 5634 5632 5630 5629 5629 5628 5629 5629 5630 5632 5633
5653 5653 5654 5654 5654 5655 5655 5656 5656 5656 5656 5655 5654 5654 5652 5651 5649 5647 5645 5643 5641 5639 5636 5634 5632 5629 5627 5625 5624 5622 5622 5621 5621 5621 5622 5623 5625 5627
5637 5638 5639 5639 5640 5641 5641 5641 5642 5642 5643 5643 5642 5641 5640 5639 5638 5636 5634 5632 5630 5628 5626 5624 5622 5620 5619 5617 5616 5615 5614 5614 5614 5615 5615 5617 5618 5620
5622 5623 5624 5625 5626 5626 5627 5628 5628 5629 5629 5629 5629 5629 5628 5627 5626 5625 5623 5622 5620 5618 5616 5615 5613 5612 5610 5609 5608 5607 5607 5607 5607 5608 5609 5610 5611 5613
5605 5607 5608 5609 5611 5612 5613 5614 5615 5615 5615 5616 5616 5616 5616 5615 5614 5613 5612 5611 5609 5608 5607 5606 5604 5603 5602 5601 5601 5600 5600 5600 5601 5601 5602 5603 5605 5606
5589 5591 5592 5594 5595 5597 5598 5600 5601 5602 5602 5603 5603 5604 5603 5603 5602 5602 5601 5600 5599 5598 5597 5597 5596 5595 5594 5593 5593 5593 5593 5593 5594 5594 5595 5597 5598 5600
5572 5574 5576 5578 5580 5582 5584 5586 5587 5588 5589 5590 5590 5591 5591 5591 5590 5590 5590 5590 5589 5588 5588 5588 5587 5586 5586 5586 5585 5585 5586 5586 5587 5587 5588 5590 5591 5593
5555 5557 5560 5562 5564 5567 5569 5571 5573 5574 5576 5576 5577 5578 5578 5579 5579 5579 5579 5579 5579 5579 5578 5578 5578 5578 5578 5578 5578 5578 5579 5579 5580 5581 5582 5583 5584 5586
5537 5540 5543 5546 5548 5551 5554 5556 5559 5561 5562 5563 5565 5566 5566 5567 5567 5568 5568 5568 5568 5568 5569 5569 5569 5569 5569 5570 5570 5571 5571 5572 5573 5574 5575 5576 5577 5578
5519 5523 5526 5530 5533 5536 5539 5542 5544 5547 5549 5550 5552 5553 5554 5555 5556 5557 5557 5558 5558 5558 5559 5559 5560 5561 5561 5561 5562 5563 5564 5565 5565 5566 5567 5568 5569 5570
5501 5505 5510 5514 5518 5521 5524 5527 5530 5533 5535 5537 5539 5541 5542 5543 5544 5545 5546 5547 5548 5549 5549 5550 5551 5551 5552 5553 5554 5555 5555 5556 5557 5558 5559 5560 5561 5562
5484 5489 5494 5499 5503 5506 5510 5513 5516 5519 5521 5524 5526 5528 5530 5532 5533 5534 5536 5537 5538 5539 5540 5541 5542 5543 5544 5544 5546 5546 5547 5548 5549 5549 5550 5551 5551 5552
5468 5474 5479 5484 5488 5492 5496 5499 5502 5505 5508 5511 5514 5516 5518 5520 5522 5523 5525 5526 5527 5529 5530 5531 5532 5533 5535 5536 5537 5537 5538 5539 5539 5540 5541 5541 5542 5542
5453 5458 5464 5469 5473 5478 5482 5485 5489 5492 5496 5498 5501 5504 5506 5508 5510 5512 5514 5515 5517 5518 5520 5521 5523 5524 5525 5527 5527 5528 5529 5529 5530 5530 5531 5531 5532 5532
5437 5443 5448 5454 5459 5464 5468 5472 5476 5479 5483 5486 5489 5491 5494 5497 5499 5501 5503 5504 5506 5508 5510 5511 5512 5514 5515 5517 5518 5518 5519 5519 5520 5520 5521 5521 5521 5521
5422 5428 5434 5439 5445 5450 5454 5459 5463 5467 5470 5473 5476 5479 5482 5485 5487 5490 5492 5494 5496 5497 5499 5501 5502 5504 5505 5506 5507 5508 5508 5509 5509 5510 5510 5510 5510 5510
5408 5413 5419 5425 5431 5436 5441 5446 5450 5455 5458 5461 5465 5467 5470 5473 5476 5478 5481 5483 5485 5487 5488 5490 5491 5493 5494 5496 5496 5497 5497 5498 5498 5499 5499 5499 5499 5499